This demonstration page uses our WeatherBlox Daily Observations layout. Learn more.

Hourly Observations for January 20, 2019

Temp ( °F °C ) Dew Point ( °F °C ) Humidity (%) Winds ( mph kmh ) Pressure ( in mb ) Visibility ( mi km ) Precip ( " mm )
12:15 am 00:15 Clear 19 -7.1 17 -8.5 90 90 S 16 26 30.3 1026 10 16.0934 0 0
12:35 am 00:35 Clear 19 -7.3 17 -8.6 91 91 S 17 28 30.3 1026 10 16.0934 0 0
12:55 am 00:55 Clear 19 -7.3 17 -8.6 91 91 S 13 20 30.3 1026 10 16.0934 0 0
1:15 am 01:15 Clear 19 -7.3 16 -8.7 90 90 S 16 26 30.3 1026 10 16.0934 0 0
1:35 am 01:35 Clear 19 -7.5 16 -9 89 89 S 15 24 30.3 1026 10 16.0934 0 0
1:55 am 01:55 Clear 19 -7.5 16 -8.9 90 90 S 14 22 30.3 1026 10 16.0934 0 0
2:15 am 02:15 Clear 19 -7.3 16 -8.8 89 89 S 21 33 30.27 1025 10 16.0934 0 0
2:35 am 02:35 Clear 19 -7.5 16 -8.8 91 91 S 15 24 30.27 1025 10 16.0934 0 0
2:55 am 02:55 Clear 19 -7.5 16 -8.7 91 91 S 10 17 30.27 1025 10 16.0934 0 0
3:15 am 03:15 Clear 19 -7.5 16 -8.8 91 91 S 15 24 30.27 1025 10 16.0934 0 0
3:35 am 03:35 Clear 18 -7.6 16 -8.8 91 91 SSW 16 26 30.27 1025 10 16.0934 0 0
3:55 am 03:55 Clear 18 -7.7 16 -8.8 92 92 SSW 12 19 30.24 1024 10 16.0934 0 0
4:15 am 04:15 Clear 18 -7.6 17 -8.6 93 93 SSW 16 26 30.24 1024 10 16.0934 0 0
4:35 am 04:35 Clear 19 -7.2 17 -8.1 93 93 SSW 12 19 30.24 1024 10 16.0934 0 0
4:55 am 04:55 Clear 20 -6.9 18 -7.8 93 93 SSW 9 15 30.24 1024 10 16.0934 0 0
5:15 am 05:15 Clear 20 -6.8 18 -7.7 93 93 SSW 8 13 30.24 1024 10 16.0934 0 0
5:35 am 05:35 Clear 19 -7 18 -7.7 95 95 SSW 7 11 30.24 1024 10 16.0934 0 0
5:55 am 05:55 Clear 19 -7 18 -7.8 94 94 SSW 9 15 30.21 1023 10 16.0934 0 0
6:15 am 06:15 Clear 19 -7.2 18 -8 94 94 SSW 3 6 30.21 1023 10 16.0934 0 0
6:35 am 06:35 Clear 19 -7.5 17 -8.1 96 96 Calm 30.21 1023 10 16.0934 0 0
6:55 am 06:55 Clear 19 -7.5 17 -8.1 96 96 SSW 3 6 30.21 1023 10 16.0934 0 0
7:15 am 07:15 Clear 19 -7.1 18 -7.7 96 96 SSW 5 7 30.21 1023 10 16.0934 0 0
7:35 am 07:35 Clear 20 -6.7 19 -7.3 96 96 Calm 30.21 1023 10 16.0934 0 0
7:55 am 07:55 Clear 20 -6.4 19 -7 96 96 Calm 30.24 1024 10 16.0934 0 0
8:15 am 08:15 Sunny 21 -6.2 20 -6.9 95 95 Calm 30.24 1024 10 16.0934 0 0
8:35 am 08:35 Sunny 21 -6 20 -6.6 96 96 Calm 30.24 1024 10 16.0934 0 0
8:55 am 08:55 Sunny 21 -5.9 20 -6.5 96 96 Calm 30.24 1024 10 16.0934 0 0
9:15 am 09:15 Sunny 22 -5.5 21 -6.1 96 96 Calm 30.21 1023 10 16.0934 0 0
9:35 am 09:35 Partly Cloudy 24 -4.7 22 -5.4 95 95 Calm 30.21 1023 10 16.0934 0 0
9:55 am 09:55 Partly Cloudy 25 -4.1 23 -5 94 94 Calm 30.21 1023 10 16.0934 0 0
10:15 am 10:15 Partly Cloudy 26 -3.6 24 -4.6 93 93 Calm 30.21 1023 10 16.0934 0 0
10:35 am 10:35 Sunny 26 -3.3 24 -4.4 92 92 Calm 30.21 1023 10 16.0934 0 0
10:55 am 10:55 Sunny 28 -2.4 26 -3.5 92 92 Calm 30.21 1023 10 16.0934 0 0
11:15 am 11:15 Sunny 30 -1.2 28 -2.5 91 91 Calm 30.21 1023 10 16.0934 0 0
11:35 am 11:35 Partly Cloudy 32 0 29 -1.7 88 88 NNW 5 7 30.21 1023 10 16.0934 0 0
11:55 am 11:55 Partly Cloudy 33 0.5 30 -1 90 90 Calm 30.15 1021 10 16.0934 0 0
12:15 pm 12:15 Partly Cloudy 35 1.6 32 -0.1 89 89 N 3 6 30.15 1021 10 16.0934 0 0
12:35 pm 12:35 Partly Cloudy 37 2.8 33 0.3 84 84 Calm 30.18 1022 10 16.0934 0 0
12:55 pm 12:55 Cloudy 38 3.4 33 0.7 83 83 Calm 30.12 1020 10 16.0934 0 0
1:15 pm 13:15 Cloudy 39 3.7 34 1 83 83 N 3 6 30.12 1020 10 16.0934 0 0
1:35 pm 13:35 Cloudy 39 3.9 34 1.3 83 83 N 7 11 30.12 1020 10 16.0934 0 0
1:55 pm 13:55 Cloudy 39 3.7 33 0.8 82 82 NE 10 17 30.12 1020 10 16.0934 0 0
2:15 pm 14:15 Cloudy 39 3.7 33 0.8 82 82 ENE 10 17 30.12 1020 10 16.0934 0 0
2:35 pm 14:35 Mostly Cloudy 38 3.5 33 0.3 80 80 ENE 14 22 30.12 1020 10 16.0934 0 0
2:55 pm 14:55 Partly Cloudy 37 2.5 32 0 84 84 ENE 13 20 30.15 1021 10 16.0934 0 0
3:15 pm 15:15 Sunny 35 1.8 31 -0.4 86 86 ENE 16 26 30.15 1021 10 16.0934 0 0
3:35 pm 15:35 Sunny 34 1 30 -1.1 86 86 ENE 15 24 30.18 1022 10 16.0934 0 0
3:55 pm 15:55 Partly Cloudy 32 -0.2 29 -1.8 89 89 E 14 22 30.21 1023 10 16.0934 0 0
4:15 pm 16:15 Cloudy 30 -1.1 28 -2.4 91 91 ENE 16 26 30.21 1023 10 16.0934 0 0
4:35 pm 16:35 Cloudy 28 -2 27 -3 93 93 E 12 19 30.21 1023 10 16.0934 0 0
4:55 pm 16:55 Cloudy 28 -2.4 26 -3.1 95 95 E 15 24 30.21 1023 10 16.0934 0 0
5:15 pm 17:15 Cloudy 27 -2.9 26 -3.4 96 96 E 16 26 30.24 1024 10 16.0934 0 0
5:35 pm 17:35 Cloudy 26 -3.6 25 -4.1 96 96 E 15 24 30.27 1025 10 16.0934 0 0
5:55 pm 17:55 Cloudy 25 -4.1 24 -4.5 97 97 E 18 30 30.27 1025 10 16.0934 0 0
6:15 pm 18:15 Cloudy 23 -5.1 22 -5.4 98 98 E 15 24 30.27 1025 10 16.0934 0 0
6:35 pm 18:35 Cloudy 22 -5.7 21 -6 98 98 E 17 28 30.3 1026 10 16.0934 0 0
6:55 pm 18:55 Cloudy 21 -6.1 20 -6.5 97 97 ESE 17 28 30.3 1026 10 16.0934 0 0
7:15 pm 19:15 Cloudy 20 -6.5 19 -7 96 96 ESE 17 28 30.3 1026 10 16.0934 0 0
7:35 pm 19:35 Cloudy 20 -6.8 19 -7.3 96 96 ESE 13 20 30.3 1026 10 16.0934 0 0
7:55 pm 19:55 Mostly Cloudy 19 -7.2 18 -7.6 97 97 ESE 15 24 30.3 1026 10 16.0934 0 0
8:15 pm 20:15 Cloudy 19 -7.5 18 -8 96 96 E 14 22 30.3 1026 10 16.0934 0 0
8:35 pm 20:35 Cloudy 18 -7.6 18 -8 97 97 E 15 24 30.3 1026 10 16.0934 0 0
8:55 pm 20:55 Cloudy 18 -7.8 17 -8.3 96 96 E 13 20 30.27 1025 10 16.0934 0 0
9:15 pm 21:15 Cloudy 17 -8.3 16 -8.7 97 97 E 14 22 30.27 1025 10 16.0934 0 0
9:35 pm 21:35 Cloudy 17 -8.5 16 -9 96 96 E 14 22 30.27 1025 10 16.0934 0 0
9:55 pm 21:55 Cloudy 16 -9 15 -9.3 98 98 E 16 26 30.3 1026 10 16.0934 0 0
10:15 pm 22:15 Cloudy 16 -9.1 15 -9.5 97 97 ESE 15 24 30.3 1026 10 16.0934 0 0
10:35 pm 22:35 Cloudy 15 -9.3 15 -9.5 98 98 ESE 13 20 30.3 1026 10 16.0934 0 0
10:55 pm 22:55 Cloudy 15 -9.2 15 -9.4 98 98 E 12 19 30.3 1026 10 16.0934 0 0
11:15 pm 23:15 Cloudy 15 -9.3 15 -9.3 100 100 E 12 19 30.3 1026 7 11.26538 0 0
11:35 pm 23:35 Cloudy 15 -9.3 15 -9.3 100 100 ESE 12 19 30.27 1025 7 11.26538 0 0
11:55 pm 23:55 Cloudy with Mist and Fog 15 -9.3 15 -9.3 100 100 ESE 13 20 30.24 1024 1.75 2.816345 0 0

Powered by AerisWeather